{"data":{"norad_id":61203,"intl_designator":"2024-171D","name":"STARLINK-11292 [DTC]","alt_names":[],"object_type":"PAYLOAD","status":"ACTIVE","operator":null,"country":"US","launch_date":"2024-09-20","launch_site_code":"AFWTR","launch_vehicle":null,"mission":null,"orbit_class":"UNKNOWN","rcs_meters":null,"size_class":null,"mass_kg":null,"dimensions":null,"purposes":["comms"],"wikipedia_slug":null,"has_3d_model":false,"image_url":null,"decayed_at":null,"tle_current":{"epoch":"2026-09-19T14:17:57.981408Z","epoch_age_seconds":270256,"freshness":"STALE","line1":"1 61203U 24171D   26262.59580997  .00000417  00000+0  83001-5 0  9995","line2":"2 61203  53.1598 300.3941 0001155  79.4715 280.6433 15.69710935114851","mean_motion":15.69710935,"eccentricity":0.0001155,"inclination_deg":53.1598,"raan_deg":300.3941,"arg_perigee_deg":79.4715,"mean_anomaly_deg":280.6433,"bstar":8.3001e-6,"rev_number":11485,"period_min":91.736635573606,"perigee_km":358.94585185487,"apogee_km":360.50229776315,"semimajor_km":6737.861074809,"source":"CELESTRAK","updated_at":"2026-09-22T09:00:49.338898Z"}}}